Date,TemperatureHighF,TemperatureAvgF,TemperatureLowF,DewpointHighF,DewpointAvgF,DewpointLowF,HumidityHigh,HumidityAvg,HumidityLow,PressureMaxIn,PressureMinIn,WindSpeedMaxMPH,WindSpeedAvgMPH,GustSpeedMaxMPH,PrecipitationSumIn
2013-1-1,27.0,19.0,8.0,20.0,14.5,4.0,89,83,68,30.30,30.14,0,0,7,0.18
2013-1-2,34.0,19.9,10.0,27.0,15.2,7.0,90,82,66,30.26,30.10,5,0,10,0.04
2013-1-3,34.0,21.1,9.0,26.0,16.6,6.0,90,83,66,30.45,30.25,3,0,7,0.03
2013-1-4,44.0,26.3,10.0,29.0,19.5,7.0,89,76,52,30.35,30.15,3,0,9,0.01
2013-1-5,43.0,35.3,29.0,32.0,27.4,22.0,84,73,58,30.25,30.06,10,3,20,0.00
2013-1-6,50.0,33.8,19.0,30.0,23.4,15.0,86,67,45,30.38,30.16,12,2,20,0.00
2013-1-7,52.0,41.0,32.0,31.0,26.5,22.0,68,57,43,30.17,29.93,14,5,23,0.00
2013-1-8,57.0,39.9,26.0,35.0,28.9,22.0,86,66,42,30.17,29.88,14,3,25,0.00
2013-1-9,55.0,34.7,22.0,36.0,27.5,19.0,90,77,47,30.41,30.16,4,0,5,0.00
2013-1-10,45.0,42.1,38.0,43.0,39.3,32.0,94,90,75,30.26,29.67,11,2,15,0.61
2013-1-11,53.0,47.3,44.0,45.0,43.2,42.0,94,86,74,29.69,29.42,14,8,33,0.01
2013-1-13,29.0,20.5,13.0,12.0,10.0,8.0,83,65,46,30.33,30.22,6,1,13,0.00
2013-1-14,33.0,19.7,8.0,15.0,10.7,4.0,85,69,43,30.46,30.31,4,0,9,0.00
2013-1-15,37.0,24.7,13.0,19.0,14.9,9.0,85,68,42,30.32,30.13,3,0,6,0.00
2013-1-16,56.0,33.1,20.0,35.0,23.3,14.0,84,69,44,30.24,30.00,5,0,11,0.00
2013-1-17,57.0,36.5,21.0,34.0,26.2,18.0,89,69,37,30.47,30.23,5,1,11,0.00
2013-1-18,63.0,46.0,34.0,35.0,31.2,27.0,76,59,34,30.32,29.97,11,3,21,0.00
2013-1-19,63.0,43.2,27.0,32.0,28.3,21.0,82,59,29,30.24,29.95,7,1,13,0.00
2013-1-20,44.0,29.8,20.0,28.0,19.3,11.0,87,67,43,30.40,30.20,7,1,12,0.00
2013-1-21,39.0,24.0,14.0,18.0,13.7,9.0,84,67,40,30.40,30.23,4,1,9,0.00
2013-1-22,40.0,23.2,14.0,19.0,12.9,8.0,82,66,43,30.30,30.16,10,2,15,0.00
2013-1-23,50.0,30.2,15.0,31.0,19.9,11.0,87,68,43,30.36,30.11,4,1,13,0.00
2013-1-24,29.0,23.5,14.0,18.0,10.7,6.0,77,59,40,30.40,30.11,8,4,12,0.00
2013-1-25,52.0,32.7,16.0,28.0,20.4,12.0,85,63,38,30.24,30.12,4,0,8,0.00
2013-1-26,59.0,45.4,30.0,40.0,29.6,22.0,81,56,29,30.20,29.94,17,6,26,0.03
2013-1-27,66.0,49.7,38.0,56.0,44.3,34.0,93,82,55,29.96,29.65,15,7,27,0.02
2013-1-28,74.0,53.6,30.0,59.0,44.0,28.0,94,74,36,29.79,29.56,15,5,29,0.01
2013-1-29,64.0,39.4,32.0,58.0,35.0,30.0,92,84,65,29.69,29.52,11,4,27,0.01
2013-1-30,32.0,25.3,15.0,30.0,20.8,11.0,93,83,67,29.96,29.63,12,5,25,0.06
2013-1-31,27.0,19.1,7.0,18.0,11.4,3.0,86,72,56,30.41,29.91,7,2,15,0.04
2013-2-1,37.0,22.6,9.0,20.0,12.4,5.0,84,66,47,30.39,30.08,11,3,19,0.01
2013-2-2,55.0,39.1,21.0,37.0,28.7,18.0,90,67,45,30.24,30.10,8,1,17,0.02
2013-2-3,55.0,43.7,27.0,32.0,27.5,22.0,85,55,36,30.25,29.79,14,5,29,0.00
2013-2-4,50.0,39.5,27.0,34.0,29.5,23.0,86,68,51,29.96,29.76,5,1,15,0.00
2013-2-5,64.0,42.2,27.0,34.0,29.2,23.0,87,64,32,30.03,29.87,9,1,12,0.00
2013-2-6,60.0,48.6,38.0,52.0,40.1,29.0,92,73,54,30.03,29.77,17,6,23,0.00
2013-2-7,56.0,47.4,35.0,53.0,38.9,29.0,93,74,47,30.14,29.81,7,2,20,1.13
2013-2-8,41.0,34.7,27.0,35.0,30.8,25.0,93,86,78,30.31,30.08,14,6,19,0.00
2013-2-9,50.0,41.4,35.0,42.0,35.9,30.0,91,81,72,30.09,29.57,23,14,33,0.05
2013-2-10,48.0,40.9,33.0,43.0,32.1,24.0,92,72,52,30.01,29.39,20,8,33,0.05
2013-2-11,45.0,33.8,25.0,24.0,22.5,19.0,85,65,40,30.20,30.00,7,1,16,0.00
2013-2-12,42.0,32.9,25.0,27.0,24.9,21.0,88,73,51,30.16,29.96,2,0,4,0.00
2013-2-13,57.0,38.1,23.0,30.0,25.3,19.0,89,64,32,29.96,29.80,8,1,20,0.00
2013-2-14,47.0,38.1,29.0,34.0,27.3,19.0,88,66,46,30.28,29.86,11,2,21,0.00
2013-2-15,42.0,30.2,19.0,22.0,18.0,14.0,83,62,42,30.41,30.27,7,1,17,0.00
2013-2-16,52.0,31.0,13.0,30.0,19.6,9.0,85,65,39,30.34,29.95,10,2,20,0.00
2013-2-17,68.0,46.9,26.0,36.0,29.7,22.0,87,57,27,29.97,29.49,15,5,24,0.00
2013-2-18,53.0,43.5,21.0,34.0,27.4,15.0,78,54,40,30.12,29.38,16,7,27,0.00
2013-2-19,42.0,28.5,18.0,20.0,15.3,8.0,84,60,37,30.34,30.12,5,1,14,0.00
2013-2-20,29.0,25.0,22.0,25.0,16.4,7.0,89,71,47,30.25,30.01,13,4,20,0.05
2013-2-21,25.0,22.2,17.0,22.0,19.4,14.0,90,89,80,30.04,29.71,5,3,14,0.02
2013-2-22,27.0,15.8,5.0,18.0,11.0,2.0,89,81,67,30.07,29.86,5,2,11,0.27
2013-2-23,32.0,14.7,-1.0,24.0,9.7,-5.0,87,81,72,30.06,29.85,10,3,16,0.28
2013-2-24,42.0,32.0,15.0,31.0,24.4,11.0,87,74,63,29.93,29.78,13,4,18,0.08
2013-2-25,35.0,33.2,31.0,32.0,29.9,28.0,93,88,82,29.93,29.75,6,2,18,0.28
2013-2-26,37.0,31.1,26.0,28.0,26.1,23.0,91,82,67,29.92,29.74,10,4,17,0.17
2013-2-27,40.0,32.4,27.0,29.0,25.9,22.0,91,77,59,30.15,29.91,11,5,19,0.02
2013-2-28,38.0,32.5,25.0,28.0,26.2,21.0,85,77,68,30.22,30.15,6,2,16,0.01
2013-3-1,36.0,29.9,21.0,26.0,22.9,16.0,84,76,60,30.33,30.20,9,2,17,0.00
2013-3-2,40.0,26.0,12.0,27.0,19.4,9.0,92,76,59,30.35,30.09,8,1,12,0.00
2013-3-3,46.0,37.3,29.0,37.0,30.7,24.0,82,77,68,30.10,29.59,12,3,17,0.00
2013-3-4,46.0,37.2,27.0,38.0,32.6,24.0,92,83,74,30.03,29.56,9,2,22,0.07
2013-3-5,43.0,33.5,23.0,29.0,20.8,16.0,85,60,43,30.37,30.03,15,6,29,0.07
2013-3-6,46.0,31.1,17.0,30.0,21.9,13.0,88,70,47,30.41,30.12,17,5,22,0.00
2013-3-7,63.0,46.0,32.0,37.0,29.9,24.0,75,55,34,30.14,29.97,19,11,30,0.00
2013-3-8,63.0,51.5,39.0,50.0,40.4,30.0,79,66,57,30.02,29.82,20,12,30,0.00
2013-3-9,62.0,54.4,41.0,56.0,50.4,36.0,91,87,75,29.84,29.49,24,13,37,0.50
2013-3-10,40.0,30.5,26.0,37.0,27.6,22.0,92,89,80,30.03,29.58,13,7,26,0.06
2013-3-11,46.0,31.8,19.0,31.0,21.1,14.0,82,66,40,30.02,29.90,9,3,16,0.02
2013-3-12,49.0,40.1,27.0,32.0,26.7,19.0,85,61,34,30.34,29.99,12,3,22,0.01
2013-3-13,56.0,37.5,21.0,35.0,26.1,17.0,88,66,40,30.42,30.17,13,4,22,0.00
2013-3-14,75.0,53.8,40.0,47.0,38.2,29.0,78,58,33,30.18,30.05,10,1,24,0.00
2013-3-15,86.0,60.0,38.0,49.0,42.1,34.0,87,58,20,30.06,29.62,11,1,17,0.00
2013-3-16,53.0,43.5,34.0,45.0,35.2,27.0,84,72,60,30.02,29.70,9,3,18,0.00
2013-3-17,41.0,35.6,31.0,34.0,30.0,26.0,90,80,74,30.02,29.67,11,4,17,0.00
2013-3-18,57.0,43.1,34.0,36.0,30.1,23.0,92,65,30,30.03,29.72,13,3,22,0.02
2013-3-19,51.0,37.7,25.0,32.0,25.2,18.0,82,62,44,30.26,30.02,12,1,17,0.01
2013-3-20,47.0,35.9,25.0,31.0,22.8,18.0,87,61,36,30.40,29.99,12,1,16,0.00
2013-3-21,51.0,38.9,33.0,28.0,21.8,17.0,82,52,33,30.00,29.69,23,12,32,0.00
2013-3-22,49.0,35.7,29.0,35.0,29.4,26.0,90,79,56,29.95,29.84,4,1,10,0.00
2013-3-23,35.0,32.6,30.0,31.0,29.9,28.0,93,89,84,29.97,29.86,7,3,19,0.08
2013-3-24,37.0,29.2,23.0,28.0,22.4,19.0,93,77,55,30.14,29.97,12,6,22,0.34
2013-3-25,34.0,28.4,23.0,22.0,18.7,17.0,79,67,52,30.35,30.13,12,6,22,0.02
2013-3-26,45.0,29.5,14.0,31.0,21.1,11.0,87,72,51,30.39,30.14,13,4,19,0.01
2013-3-27,59.0,44.7,32.0,37.0,30.4,25.0,76,58,41,30.17,30.06,18,6,26,0.00
2013-3-28,68.0,47.2,26.0,43.0,35.2,23.0,91,67,36,30.16,30.03,7,1,17,0.00
2013-3-29,73.0,57.3,39.0,55.0,47.0,35.0,89,70,47,30.14,29.97,14,5,20,0.00
2013-3-30,73.0,59.2,49.0,59.0,50.9,-99.9,92,78,56,29.99,29.85,13,2,18,0.56
2013-3-31,66.0,53.8,44.0,47.0,42.2,36.0,91,68,33,30.05,29.91,7,1,18,0.06
2013-4-1,53.0,41.2,33.0,40.0,28.3,22.0,83,61,43,30.28,29.91,7,2,14,0.00
2013-4-2,49.0,40.2,33.0,34.0,26.3,23.0,81,58,42,30.27,30.19,8,2,16,0.00
2013-4-3,44.0,39.9,34.0,34.0,30.8,25.0,87,70,51,30.33,30.24,14,2,18,0.00
2013-4-4,63.0,47.9,38.0,41.0,36.4,32.0,87,66,37,30.25,30.05,3,1,9,0.00
2013-4-5,66.0,52.5,37.0,47.0,41.0,34.0,89,67,44,30.09,29.71,21,8,34,0.00
2013-4-6,75.0,61.9,50.0,50.0,45.3,41.0,76,57,32,29.83,29.62,16,6,34,0.00
2013-4-7,74.0,60.5,45.0,57.0,48.9,39.0,90,67,40,29.84,29.59,21,6,34,0.00
2013-4-8,75.0,64.9,58.0,62.0,58.8,55.0,92,81,62,29.66,29.54,18,8,25,0.00
2013-4-9,71.0,54.4,32.0,62.0,49.7,29.0,92,84,72,29.98,29.48,19,9,32,1.03
2013-4-10,31.0,30.3,29.0,29.0,27.5,26.0,92,90,88,30.07,29.87,0,0,0,1.06
2013-4-11,38.0,30.9,26.0,31.0,26.6,23.0,90,84,71,29.91,29.77,7,1,17,0.01
2013-4-12,58.0,41.3,28.0,39.0,31.1,24.0,85,69,45,30.02,29.83,7,2,14,0.00
2013-4-13,67.0,51.5,31.0,53.0,41.2,28.0,92,70,52,30.04,29.51,19,7,30,0.00
2013-4-14,70.0,61.8,47.0,56.0,43.6,31.0,70,53,28,29.74,29.34,22,9,46,0.00
2013-4-15,55.0,47.7,41.0,39.0,34.0,29.0,77,60,44,29.96,29.72,6,1,14,0.00
2013-4-16,47.0,42.3,36.0,36.0,31.8,29.0,82,67,56,30.10,29.91,7,3,15,0.00
2013-4-17,45.0,42.0,40.0,43.0,39.4,37.0,93,90,78,30.03,29.70,8,1,14,0.93
2013-4-18,39.0,35.8,32.0,37.0,29.9,25.0,93,79,64,30.04,29.74,15,9,27,0.23
2013-4-19,59.0,42.3,28.0,39.0,29.9,23.0,81,64,41,30.07,29.97,10,3,24,0.01
2013-4-20,62.0,47.5,33.0,42.0,35.4,28.0,83,64,46,30.10,29.95,22,10,27,0.00
2013-4-21,67.0,58.3,49.0,49.0,43.1,39.0,74,58,44,30.09,29.99,19,9,30,0.00
2013-4-22,59.0,51.2,36.0,53.0,44.5,32.0,88,78,66,30.12,29.85,16,6,26,0.17
2013-4-23,36.0,33.1,30.0,33.0,28.7,27.0,92,84,72,30.24,30.07,8,4,16,0.46
2013-4-24,60.0,41.6,23.0,38.0,30.1,20.0,90,67,38,30.25,30.11,8,2,16,0.09
2013-4-25,69.0,51.2,31.0,44.0,37.1,27.0,88,62,35,30.26,30.01,17,4,27,0.01
2013-4-26,58.0,51.8,47.0,52.0,46.4,41.0,93,82,62,30.15,30.00,18,7,29,0.25
2013-4-27,70.0,55.0,49.0,55.0,49.8,47.0,94,84,56,30.15,29.96,6,0,10,0.19
2013-4-28,79.0,62.6,47.0,62.0,53.5,45.0,93,74,49,29.97,29.70,11,4,21,0.01
2013-4-29,84.0,69.3,49.0,65.0,56.8,45.0,91,67,46,29.75,29.53,16,5,30,0.01
2013-4-30,83.0,72.7,63.0,66.0,58.5,51.0,77,62,50,29.71,29.58,19,10,30,0.00
2013-5-1,69.0,50.1,36.0,55.0,44.5,34.0,92,82,61,30.33,29.71,13,4,23,0.79
2013-5-2,54.0,41.0,33.0,37.0,33.7,30.0,93,77,48,30.51,30.29,9,4,21,1.33
2013-5-3,59.0,44.6,31.0,39.0,31.7,27.0,87,64,37,30.39,30.00,11,3,18,0.03
2013-5-4,49.0,44.0,41.0,41.0,35.0,29.0,86,71,58,30.10,29.92,11,3,23,0.00
2013-5-5,66.0,50.8,43.0,53.0,44.5,38.0,89,80,59,30.16,30.06,6,2,13,0.00
2013-5-6,70.0,53.6,39.0,56.0,46.8,37.0,94,80,55,30.15,30.01,5,1,9,0.00
2013-5-7,71.0,59.8,46.0,59.0,52.0,43.0,93,77,60,30.05,29.90,16,4,23,0.04
2013-5-8,77.0,65.5,57.0,65.0,58.2,53.0,91,78,61,30.02,29.76,19,7,36,0.48
2013-5-9,72.0,60.7,51.0,62.0,55.4,49.0,94,84,66,30.02,29.86,17,2,31,0.40
2013-5-10,72.0,59.9,51.0,58.0,50.9,-99.9,92,77,49,30.11,30.01,5,0,14,0.00
2013-5-11,69.0,56.6,43.0,49.0,42.2,-99.9,92,64,32,30.27,30.08,8,1,17,0.00
2013-5-12,68.0,50.9,36.0,51.0,42.1,33.0,92,74,49,30.30,30.06,17,4,23,0.08
2013-5-13,82.0,63.8,41.0,64.0,52.3,38.0,92,68,45,30.10,29.90,9,4,17,0.01
2013-5-14,91.0,75.1,61.0,62.0,54.6,47.0,74,51,31,29.90,29.75,11,3,22,0.00
2013-5-15,83.0,71.8,60.0,67.0,59.2,55.0,88,66,50,29.85,29.76,15,4,23,0.00
2013-5-16,78.0,63.3,59.0,64.0,41.6,-99.9,95,80,57,29.88,29.78,10,3,16,0.00
2013-5-17,82.0,68.9,55.0,67.0,56.8,-99.9,94,77,57,29.89,29.78,13,4,18,0.00
2013-5-18,85.0,73.0,62.0,75.0,67.3,59.0,92,83,58,29.88,29.60,18,8,28,0.19
2013-5-19,82.0,68.2,56.0,72.0,61.4,54.0,92,80,56,29.80,29.48,24,5,33,1.25
2013-5-20,76.0,62.9,53.0,65.0,56.8,49.0,93,82,60,29.79,29.63,4,1,12,0.42
2013-5-21,74.0,62.3,50.0,54.0,49.9,46.0,88,65,46,29.84,29.71,8,1,17,0.01
2013-5-22,75.0,61.4,50.0,58.0,51.1,45.0,86,70,50,29.97,29.81,8,2,17,0.00
2013-5-23,74.0,60.7,48.0,59.0,53.1,46.0,92,77,59,30.17,29.97,5,0,12,0.00
2013-5-24,76.0,65.0,55.0,66.0,58.7,52.0,90,81,69,30.21,30.01,15,8,24,0.00
2013-5-25,81.0,74.2,68.0,67.0,65.2,62.0,90,74,59,30.09,29.91,18,9,28,0.00
2013-5-26,84.0,73.9,67.0,71.0,67.0,63.0,88,79,66,30.00,29.80,19,10,30,0.00
2013-5-27,84.0,75.7,69.0,72.0,68.5,64.0,87,79,65,29.80,29.51,22,12,35,0.00
2013-5-28,88.0,76.9,70.0,75.0,68.9,66.0,89,77,62,29.67,29.52,24,9,36,0.00
2013-5-29,82.0,71.5,61.0,70.0,65.1,58.0,94,81,61,29.66,29.48,23,12,42,1.31
2013-5-30,79.0,65.2,58.0,66.0,59.4,56.0,94,83,57,29.69,29.55,15,2,23,2.17
2013-5-31,85.0,73.0,62.0,66.0,61.6,52.0,93,71,33,29.78,29.60,10,1,15,0.04
2013-6-1,71.0,62.5,53.0,60.0,52.0,47.0,81,69,59,30.08,29.75,9,3,17,0.00
2013-6-2,73.0,59.9,48.0,55.0,48.9,45.0,89,69,44,30.16,29.99,6,1,13,0.00
2013-6-3,78.0,64.2,51.0,61.0,54.9,47.0,91,73,54,30.02,29.75,16,8,25,0.00
2013-6-4,88.0,73.2,64.0,70.0,64.8,60.0,90,76,50,29.93,29.70,14,4,22,0.01
2013-6-5,72.0,66.0,59.0,65.0,60.2,54.0,94,82,64,30.04,29.90,9,2,16,0.98
2013-6-6,76.0,64.3,51.0,59.0,54.2,49.0,93,72,46,30.05,29.95,6,1,11,0.02
2013-6-7,80.0,64.1,50.0,62.0,54.8,48.0,94,75,47,30.04,29.88,5,1,11,0.00
2013-6-8,82.0,68.7,60.0,65.0,59.2,55.0,93,73,51,29.90,29.68,18,7,28,0.34
2013-6-9,87.0,70.4,54.0,66.0,59.8,52.0,94,72,40,29.90,29.82,6,1,14,0.01
2013-6-10,92.0,75.4,54.0,75.0,64.2,52.0,94,71,51,29.91,29.71,10,4,22,0.01
2013-6-11,95.0,83.5,66.0,68.0,63.3,59.0,82,52,35,29.85,29.69,17,8,36,0.00
2013-6-12,97.0,83.0,73.0,74.0,68.5,61.0,76,63,40,29.99,29.69,15,5,33,0.00
2013-6-13,89.0,71.3,58.0,68.0,60.2,54.0,87,69,48,30.09,29.94,10,2,14,0.00
2013-6-14,99.0,83.0,70.0,73.0,66.4,60.0,85,61,30,29.96,29.79,11,6,26,0.00
2013-6-15,91.0,78.7,68.0,71.0,65.4,62.0,86,65,44,29.98,29.79,12,3,25,0.11
2013-6-16,92.0,79.1,68.0,72.0,66.9,61.0,85,68,43,29.98,29.85,6,1,16,0.01
2013-6-17,88.0,73.9,64.0,73.0,66.9,62.0,95,81,48,30.00,29.78,15,2,37,4.97
2013-6-18,90.0,72.7,61.0,71.0,63.9,59.0,95,77,40,30.06,29.93,10,1,20,0.01
2013-6-19,89.0,76.2,63.0,68.0,64.3,60.0,91,69,47,29.99,29.87,15,6,24,0.01
2013-6-20,94.0,78.3,70.0,72.0,68.4,65.0,88,74,47,29.92,29.83,17,8,33,0.00
2013-6-22,95.0,89.7,83.0,68.0,66.1,62.0,56,46,39,29.88,29.75,19,13,33,0.00
2013-6-23,95.0,84.7,76.0,70.0,66.8,63.0,74,56,38,29.85,29.75,17,8,31,0.00
2013-6-24,93.0,83.4,76.0,70.0,67.1,64.0,72,59,39,29.85,29.72,22,11,33,0.00
2013-6-25,98.0,86.0,77.0,72.0,68.7,66.0,73,58,38,29.85,29.60,19,10,34,0.00
2013-6-26,101.0,81.8,71.0,73.0,70.3,65.0,92,72,31,29.87,29.75,5,0,9,0.00
2013-6-27,104.0,85.9,74.0,77.0,72.3,68.0,87,67,35,30.00,29.80,9,2,15,0.01
2013-6-28,94.0,78.8,62.0,72.0,64.9,57.0,94,67,34,30.05,29.91,7,1,16,0.00
2013-6-29,89.0,79.8,59.0,63.0,56.6,52.0,91,48,32,29.99,29.88,12,3,20,0.00
2013-6-30,83.0,73.5,56.0,60.0,55.7,51.0,92,56,38,30.07,29.96,5,1,17,0.00
2013-7-1,84.0,74.4,50.0,57.0,53.0,48.0,94,51,33,30.17,30.08,4,1,12,0.00
2013-7-2,86.0,73.2,51.0,59.0,54.5,48.0,92,56,33,30.16,30.07,4,1,13,0.00
2013-7-3,87.0,72.3,58.0,59.0,53.4,49.0,82,56,29,30.12,29.95,9,2,16,0.00
2013-7-4,91.0,77.0,66.0,58.0,54.4,50.0,64,47,26,30.00,29.86,12,5,19,0.00
2013-7-5,92.0,81.5,69.0,62.0,59.3,55.0,73,49,35,29.93,29.81,18,10,33,0.00
2013-7-6,89.0,79.0,74.0,67.0,63.4,59.0,75,59,48,29.88,29.80,21,10,33,0.01
2013-7-7,99.0,87.0,76.0,66.0,63.8,61.0,65,48,30,29.92,29.83,17,9,25,0.01
2013-7-8,100.0,85.3,74.0,68.0,64.6,-99.9,81,53,31,30.00,29.88,13,6,24,0.02
2013-7-9,105.0,86.4,72.0,72.0,68.1,64.0,88,57,29,30.03,29.81,14,6,24,0.13
2013-7-10,96.0,80.9,68.0,76.0,67.4,-99.9,93,68,46,30.03,29.95,12,2,18,0.13
2013-7-11,89.0,75.6,67.0,75.0,66.7,61.0,94,75,55,30.13,29.91,20,6,26,2.85
2013-7-12,97.0,82.0,71.0,73.0,67.7,63.0,78,64,43,29.96,29.86,13,8,19,0.93
2013-7-13,97.0,85.1,77.0,75.0,71.3,68.0,77,64,46,29.94,29.84,17,9,22,0.00
2013-7-14,88.0,76.4,70.0,72.0,68.9,66.0,91,79,53,30.08,29.88,14,3,19,0.18
2013-7-15,86.0,71.0,62.0,71.0,65.2,60.0,93,83,52,30.19,30.08,12,1,18,0.21
2013-7-16,88.0,74.1,62.0,70.0,65.3,60.0,94,76,51,30.27,30.18,11,3,19,0.15
2013-7-17,91.0,77.7,67.0,73.0,69.2,65.0,94,77,53,30.33,30.19,9,1,15,0.01
2013-7-18,91.0,80.6,69.0,72.0,68.6,66.0,92,69,45,30.21,29.99,10,3,21,0.00
2013-7-19,94.0,82.1,72.0,71.0,68.2,65.0,83,65,43,30.03,29.85,6,2,13,0.00
2013-7-20,95.0,77.2,71.0,74.0,67.6,-99.9,93,76,42,29.94,29.80,14,3,20,0.66
2013-7-21,87.0,76.1,70.0,75.0,70.3,66.0,94,83,63,29.91,29.78,7,1,13,0.88
2013-7-22,91.0,79.9,73.0,76.0,71.3,67.0,92,77,53,29.86,29.77,12,2,18,0.01
2013-7-23,91.0,75.6,70.0,73.0,68.3,65.0,90,79,53,29.99,29.82,13,1,22,0.04
2013-7-24,89.0,72.7,64.0,69.0,65.0,61.0,92,79,42,30.08,29.93,3,0,9,0.04
2013-7-25,81.0,72.1,67.0,74.0,66.8,60.0,93,84,73,30.07,29.99,17,2,24,2.62
2013-7-26,87.0,73.3,65.0,73.0,65.9,57.0,95,80,50,30.12,29.99,17,0,24,3.67
2013-7-27,73.0,64.5,58.0,62.0,57.7,54.0,90,79,63,30.19,29.98,8,0,12,0.07
2013-7-28,65.0,61.3,57.0,63.0,58.8,54.0,94,92,79,30.07,30.00,10,3,17,1.22
2013-7-29,72.0,67.2,62.0,70.0,64.8,59.0,95,92,86,30.01,29.89,12,4,17,5.57
2013-7-30,82.0,72.1,68.0,72.0,69.0,65.0,96,90,71,30.12,29.96,1,0,3,0.73
2013-7-31,89.0,74.2,63.0,74.0,68.3,62.0,96,83,56,30.18,30.07,3,0,5,0.01
2013-8-1,87.0,76.4,65.0,73.0,68.0,63.0,95,77,55,30.13,29.88,11,4,21,0.01
2013-8-2,91.0,78.8,65.0,79.0,71.4,62.0,91,79,61,29.97,29.83,13,4,22,0.07
2013-8-3,89.0,77.5,70.0,78.0,72.3,68.0,94,84,67,30.10,29.91,12,2,18,0.06
2013-8-4,82.0,75.1,69.0,75.0,71.0,67.0,95,88,72,30.12,29.97,10,2,17,2.01
2013-8-5,87.0,76.6,71.0,78.0,72.4,67.0,94,87,70,30.00,29.80,12,2,22,0.09
2013-8-6,90.0,79.1,67.0,78.0,72.2,65.0,93,80,59,29.88,29.79,7,2,12,0.10
2013-8-7,89.0,77.4,69.0,79.0,72.3,67.0,94,85,66,29.97,29.82,5,1,12,0.19
2013-8-8,76.0,69.9,67.0,69.0,64.9,63.0,92,84,78,30.03,29.88,2,0,9,0.26
2013-8-9,78.0,69.7,63.0,68.0,63.8,60.0,93,82,67,30.17,30.01,9,0,13,0.22
2013-8-10,85.0,71.2,58.0,71.0,64.1,56.0,95,80,55,30.23,30.08,6,1,11,0.01
2013-8-11,85.0,74.8,65.0,73.0,68.1,63.0,93,80,62,30.15,30.01,7,2,14,0.00
2013-8-12,87.0,75.8,65.0,74.0,69.2,63.0,95,81,59,30.05,29.95,8,2,24,0.56
2013-8-13,83.0,71.3,65.0,73.0,65.8,-99.9,93,87,68,30.15,30.02,8,1,12,0.07
2013-8-14,80.0,66.6,57.0,67.0,57.3,-99.9,95,84,57,30.21,30.10,7,2,12,0.02
2013-8-15,64.0,59.1,62.0,62.0,50.9,-99.9,93,86,91,30.04,29.99,5,1,12,1.14
2013-8-16,80.0,65.5,61.0,69.0,57.6,-99.9,95,85,66,30.14,30.04,6,2,11,1.20
2013-8-17,80.0,71.3,62.0,67.0,60.0,-99.9,91,71,62,30.19,30.09,8,4,15,0.00
2013-8-18,82.0,70.1,60.0,67.0,62.1,56.0,90,77,59,30.17,30.03,9,3,14,0.00
2013-8-19,85.0,70.0,65.0,70.0,53.9,-99.9,89,75,58,30.10,29.96,12,4,19,0.00
2013-8-20,88.0,75.9,69.0,71.0,64.9,-99.9,87,73,54,30.03,29.94,7,4,18,0.00
2013-8-21,90.0,77.8,69.0,71.0,66.7,64.0,85,70,50,30.02,29.97,9,5,17,0.00
2013-8-22,89.0,78.5,69.0,70.0,67.1,64.0,86,69,48,30.09,29.96,11,4,18,0.00
2013-8-23,90.0,79.9,70.0,75.0,71.3,67.0,91,76,59,30.06,29.96,11,5,16,0.00
2013-8-24,92.0,81.2,74.0,73.0,69.0,-99.9,86,70,52,30.09,30.00,11,7,20,0.00
2013-8-25,93.0,82.5,74.0,75.0,70.7,68.0,84,69,48,30.15,30.07,11,6,17,0.00
2013-8-26,93.0,83.1,73.0,72.0,69.5,67.0,87,65,46,30.14,30.02,8,5,17,0.00
2013-8-27,92.0,79.0,72.0,70.0,67.6,66.0,84,70,42,30.05,29.99,7,5,17,0.00
2013-8-28,91.0,84.7,77.0,74.0,71.5,70.0,81,66,53,30.05,29.98,6,3,14,0.00
2013-8-29,96.0,82.6,74.0,73.0,69.4,65.0,84,67,38,30.01,29.91,7,4,14,0.00
2013-8-30,100.0,78.5,71.0,73.0,66.5,64.0,80,68,33,29.96,29.83,5,1,13,0.00
2013-8-31,98.0,79.7,69.0,79.0,68.6,-99.9,92,73,47,29.89,29.78,8,2,13,0.00
2013-9-1,91.0,80.4,65.0,74.0,68.2,58.0,84,68,45,30.01,29.77,8,1,14,0.00
2013-9-2,87.0,71.6,54.0,64.0,59.8,52.0,94,70,44,30.11,30.00,4,0,9,0.00
2013-9-3,88.0,69.3,55.0,66.0,59.3,52.0,94,74,41,30.11,30.00,10,2,12,0.00
2013-9-4,88.0,71.2,59.0,64.0,60.1,56.0,91,70,43,30.16,30.05,7,2,13,0.00
2013-9-5,93.0,75.6,64.0,69.0,63.8,59.0,86,69,43,30.16,30.05,9,3,14,0.00
2013-9-6,96.0,80.8,70.0,70.0,65.5,63.0,78,61,38,30.10,29.94,7,4,16,0.00
2013-9-7,99.0,80.0,73.0,71.0,63.4,-99.9,77,61,36,29.97,29.87,7,3,16,0.00
2013-9-8,100.0,83.9,73.0,70.0,65.2,63.0,73,55,34,29.91,29.81,8,2,16,0.00
2013-9-9,94.0,83.2,71.0,67.0,61.6,56.0,69,50,32,29.91,29.84,12,5,24,0.00
2013-9-10,93.0,82.6,72.0,69.0,62.6,59.0,69,52,39,30.05,29.91,12,5,19,0.00
2013-9-11,94.0,81.0,71.0,71.0,64.4,59.0,88,59,41,30.14,30.01,9,2,16,0.00
2013-9-12,77.0,71.7,69.0,71.0,68.5,66.0,94,90,79,30.21,30.11,2,0,6,0.56
2013-9-13,75.0,67.3,59.0,63.0,55.8,54.0,87,68,49,30.22,30.03,11,1,16,0.01
2013-9-14,81.0,68.8,57.0,65.0,55.9,-99.9,86,67,54,30.06,29.88,12,5,18,0.00
2013-9-15,85.0,72.0,65.0,69.0,63.5,60.0,84,75,56,30.15,29.91,7,3,16,0.01
2013-9-16,65.0,62.0,60.0,61.0,59.2,57.0,94,91,83,30.24,30.14,4,0,11,0.02
2013-9-17,83.0,71.8,63.0,70.0,65.9,61.0,95,83,62,30.17,29.89,12,6,22,0.01
2013-9-18,80.0,74.0,72.0,68.0,66.2,61.0,84,77,55,29.92,29.81,9,8,19,0.00
2013-9-19,90.0,76.6,64.0,70.0,63.8,58.0,83,65,51,30.02,29.80,11,5,21,0.02
2013-9-20,76.0,63.6,52.0,59.0,51.7,48.0,90,68,41,30.15,29.99,3,1,11,0.01
2013-9-21,84.0,62.2,48.0,56.0,47.7,-99.9,93,66,31,30.04,29.86,7,2,12,0.01
2013-9-22,81.0,68.1,57.0,54.0,51.6,49.0,82,58,36,29.93,29.77,17,7,24,0.01
2013-9-23,80.0,69.3,57.0,55.0,51.8,49.0,76,55,39,29.79,29.63,20,11,34,0.00
2013-9-24,77.0,67.9,54.0,58.0,55.2,51.0,89,65,49,29.92,29.72,12,4,24,0.00
2013-9-25,85.0,66.1,47.0,60.0,53.5,45.0,94,68,36,29.94,29.71,14,4,20,0.01
2013-9-26,93.0,76.7,65.0,62.0,58.3,55.0,75,56,33,29.76,29.67,21,13,31,0.01
2013-9-27,88.0,78.6,69.0,66.0,60.2,56.0,65,54,43,29.85,29.73,17,10,33,0.00
2013-9-28,77.0,62.7,47.0,67.0,48.9,-99.9,90,65,40,30.11,29.69,17,5,29,0.35
2013-9-29,78.0,58.0,42.0,51.0,44.1,39.0,92,66,29,30.13,29.89,9,2,13,0.01
2013-9-30,82.0,65.5,51.0,54.0,50.9,46.0,88,63,36,29.91,29.76,11,4,19,0.01
2013-10-1,77.0,71.5,69.0,62.0,61.6,61.0,77,71,59,29.92,29.88,5,5,10,0.00
2013-10-2,84.0,74.4,66.0,69.0,65.8,61.0,93,75,58,29.95,29.80,14,8,25,0.00
2013-10-3,88.0,78.4,71.0,69.0,66.9,65.0,85,69,49,29.81,29.62,15,8,26,0.00
2013-10-4,90.0,73.8,52.0,69.0,58.3,35.0,81,60,31,30.02,29.63,16,10,33,0.00
2013-10-5,62.0,52.4,46.0,36.0,33.8,32.0,63,50,36,30.11,29.95,9,4,20,0.00
2013-10-6,69.0,54.5,44.0,40.0,34.6,28.0,64,49,22,30.03,29.97,11,5,22,0.00
2013-10-7,77.0,60.8,36.0,42.0,38.7,32.0,88,49,26,30.19,30.02,9,3,15,0.00
2013-10-8,79.0,65.2,54.0,49.0,44.0,39.0,63,48,31,30.04,29.88,17,10,27,0.00
2013-10-9,81.0,67.5,58.0,55.0,50.8,48.0,71,57,34,29.97,29.88,17,10,29,0.00
2013-10-10,83.0,70.0,61.0,60.0,56.2,52.0,75,63,45,29.96,29.74,19,11,28,0.01
2013-10-11,81.0,69.7,59.0,60.0,52.6,38.0,79,58,23,29.94,29.68,17,7,33,0.01
2013-10-12,73.0,57.1,39.0,45.0,38.2,-99.9,92,56,29,30.24,29.91,3,0,11,0.00
2013-10-13,74.0,63.4,34.0,45.0,41.8,32.0,93,47,30,30.35,30.18,17,10,24,0.00
2013-10-14,65.0,62.0,58.0,60.0,53.9,42.0,92,76,47,30.18,29.75,19,11,32,0.21
2013-10-15,61.0,50.9,42.0,51.0,39.9,35.0,84,67,46,30.16,29.92,10,4,21,0.20
2013-10-16,57.0,47.6,38.0,38.0,36.1,34.0,88,66,45,30.16,30.00,6,1,13,0.00
2013-10-17,68.0,51.1,38.0,43.0,38.2,34.0,88,65,33,30.09,29.93,6,2,15,0.00
2013-10-18,43.0,36.7,33.0,36.0,33.2,30.0,92,87,75,30.19,30.09,3,1,13,0.37
2013-10-19,67.0,45.0,31.0,42.0,34.1,-99.9,92,72,37,30.11,29.88,6,1,16,0.04
2013-10-20,71.0,64.3,49.0,45.0,42.8,40.0,82,47,36,30.00,29.79,4,0,10,0.00
2013-10-21,62.0,48.6,35.0,42.0,37.0,32.0,91,66,41,30.15,29.98,4,1,13,0.00
2013-10-22,68.0,54.3,42.0,45.0,40.4,36.0,87,61,39,30.12,29.93,10,2,20,0.00
2013-10-23,69.0,48.2,32.0,46.0,37.3,29.0,93,69,41,30.16,29.98,7,1,14,0.00
2013-10-24,55.0,43.2,33.0,40.0,33.2,27.0,93,71,39,30.42,30.16,8,0,17,0.00
2013-10-25,59.0,51.7,38.0,39.0,32.5,28.0,71,50,32,30.42,30.11,11,6,20,0.00
2013-10-26,65.0,52.6,43.0,44.0,35.1,-99.9,89,57,27,30.22,30.05,5,2,18,0.00
2013-10-27,70.0,50.0,27.0,39.0,31.4,23.0,87,54,30,30.14,29.87,8,3,18,0.00
2013-10-28,65.0,55.9,49.0,55.0,46.5,-99.9,91,74,47,30.03,29.90,15,8,21,0.00
2013-10-29,70.0,59.2,53.0,66.0,55.9,48.0,94,89,78,30.00,29.87,17,2,21,0.80
2013-10-30,53.0,50.5,49.0,50.0,48.2,46.0,94,92,87,29.99,29.77,2,0,9,0.16
2013-10-31,63.0,50.5,44.0,48.0,43.7,38.0,93,80,42,29.78,29.62,8,1,18,0.15
2013-11-1,64.0,50.4,39.0,43.0,38.1,35.0,87,65,38,30.11,29.73,7,2,0,0.00
2013-11-2,62.0,45.8,33.0,36.0,30.6,-99.9,86,60,31,30.27,30.09,10,2,0,0.00
2013-11-3,63.0,52.3,44.0,41.0,36.4,32.0,66,55,42,30.08,29.72,23,16,0,0.00
2013-11-4,66.0,54.4,49.0,44.0,42.2,39.0,78,64,44,30.05,29.71,19,6,0,0.00
2013-11-5,60.0,51.2,38.0,57.0,47.6,34.0,93,88,75,30.09,29.78,15,6,22,0.00
2013-11-6,40.0,36.2,32.0,35.0,32.4,29.0,90,86,79,30.31,30.09,10,4,16,0.00
2013-11-7,59.0,42.4,30.0,39.0,33.7,27.0,90,74,43,30.43,30.27,4,1,7,0.01
2013-11-8,68.0,53.0,41.0,38.0,35.6,33.0,78,54,32,30.26,29.78,14,8,30,0.01
2013-11-9,68.0,49.9,33.0,41.0,33.5,-99.9,91,60,32,30.27,29.93,4,1,14,0.00
2013-11-10,64.0,50.7,33.0,49.0,40.7,30.0,92,70,45,30.36,30.19,17,5,23,0.00
2013-11-11,55.0,43.0,27.0,51.0,38.9,18.0,94,85,63,30.69,30.15,6,1,16,0.01
2013-11-12,37.0,26.0,17.0,18.0,13.8,11.0,83,61,35,30.89,30.64,4,2,14,0.01
2013-11-13,53.0,37.4,25.0,30.0,21.3,15.0,69,53,38,30.64,30.06,12,5,28,0.00
2013-11-14,58.0,45.6,37.0,34.0,27.8,19.0,69,50,39,30.06,29.90,12,4,22,0.00
2013-11-15,59.0,46.9,32.0,47.0,37.2,28.0,86,70,51,29.90,29.57,17,6,31,0.00
2013-11-16,76.0,61.6,54.0,52.0,45.5,-99.9,81,60,35,29.56,29.31,21,8,33,0.00
2013-11-17,63.0,54.4,36.0,47.0,31.2,20.0,72,44,19,30.14,29.31,16,5,31,0.00
2013-11-18,61.0,41.7,27.0,32.0,26.1,23.0,84,58,25,30.29,30.09,9,2,12,0.00
2013-11-19,62.0,49.7,38.0,37.0,29.8,25.0,65,48,33,30.19,29.80,25,11,34,0.00
2013-11-20,66.0,55.3,48.0,48.0,38.8,28.0,80,55,40,29.87,29.73,18,7,33,0.00
2013-11-21,52.0,34.0,23.0,46.0,29.5,18.0,89,84,77,30.53,29.88,8,4,21,0.13
2013-11-22,29.0,24.7,20.0,21.0,16.9,13.0,83,72,58,30.69,30.53,9,3,21,0.01
2013-11-23,33.0,26.3,18.0,21.0,15.6,-99.9,76,66,57,30.78,30.61,5,1,13,0.00
2013-11-24,29.0,24.3,16.0,15.0,11.3,8.0,81,59,42,30.71,30.26,11,5,18,0.00
2013-11-25,38.0,29.7,23.0,28.0,21.0,14.0,88,70,57,30.26,30.15,10,2,16,0.02
2013-11-26,41.0,27.9,16.0,26.0,16.6,9.0,89,65,34,30.44,30.21,7,2,19,0.01
2013-11-27,40.0,26.1,9.0,21.0,14.1,5.0,84,62,39,30.44,30.10,10,3,19,0.01
2013-12-14,37.0,26.0,16.0,25.0,16.8,-99.9,84,72,53,30.24,29.96,10,4,19,0.00
2013-12-15,61.0,39.7,17.0,30.0,23.8,13.0,84,57,30,30.19,29.98,7,1,14,0.00
2013-12-16,63.0,44.0,29.0,31.0,24.8,19.0,69,49,28,30.06,29.98,3,0,12,0.00
2013-12-17,56.0,38.0,22.0,33.0,24.7,18.0,88,63,32,30.34,30.17,5,1,14,0.00
2013-12-18,67.0,49.6,35.0,37.0,30.0,21.0,62,48,29,30.17,29.70,10,4,19,0.00
2013-12-19,60.0,48.8,26.0,47.0,39.5,20.0,84,70,56,29.78,29.58,9,3,22,0.00
2013-12-20,22.0,19.3,15.0,17.0,13.1,11.0,87,77,68,30.00,29.81,9,4,22,0.00
2013-12-21,25.0,22.5,21.0,21.0,15.2,-99.9,90,77,70,29.87,29.65,6,2,12,0.00
2013-12-22,28.0,21.5,1.0,21.0,16.3,-3.0,90,81,64,30.33,29.82,8,3,15,0.27
2013-12-23,19.0,12.9,-2.0,12.0,7.4,-6.0,86,79,65,30.59,30.36,3,1,5,0.02
2013-12-24,30.0,21.4,14.0,28.0,17.8,9.0,92,86,80,30.50,30.08,17,7,26,0.01
2013-12-25,46.0,31.9,20.0,32.0,25.7,17.0,92,79,53,30.36,30.26,3,0,5,0.22
2013-12-26,33.0,23.8,17.0,23.0,18.1,14.0,88,79,67,30.32,30.21,3,1,7,0.22